Location: Владивосток
(43.1151°N, 131.8856°E)
Time: 15:54:48
(UTC+10:00)

SEEDS - Pass Details

Date: 28 April 2024
Orbit: 551 x 562 km, 97.7° (Epoch: 19 May)

Event Time Altitude Azimuth Distance (km) Brightness Sun altitude
Rises 04:26:26 0° 24° (NNE) 2,738 ? -17.2°
Reaches altitude 10° 04:28:50 10° 37° (NE) 1,837 ? -16.9°
Maximum altitude 04:32:12 26° 96° (E) 1,106 ? -16.4°
Drops below altitude 10° 04:35:33 10° 154° (SSE) 1,825 ? -15.9°
Enters shadow 04:37:35 - 165° (SSE) 2,581 ? -15.6°
